Time,TemperatureF,DewpointF,PressureIn,WindDirection,WindDirectionDegrees,WindSpeedMPH,WindSpeedGustMPH,Humidity,HourlyPrecipIn,Conditions,Clouds,dailyrainin,SoftwareType,DateUTC
2013-02-21 00:00:00,18.1,10.3,30.08,NW,315,7.2,7.2,71,0.00,,,0.00,WUHU21623XXSP,2013-02-21 05:00:00,
2013-02-21 00:05:00,18.1,10.3,30.08,NNW,337,0.0,7.2,71,0.00,,,0.00,WUHU21623XXSP,2013-02-21 05:05:00,
2013-02-21 00:10:00,18.1,10.3,30.08,NW,315,0.0,0.0,71,0.00,,,0.00,WUHU21623XXSP,2013-02-21 05:10:00,
2013-02-21 00:15:00,18.1,10.6,30.07,NNW,337,0.0,0.0,72,0.00,,,0.00,WUHU21623XXSP,2013-02-21 05:15:00,
2013-02-21 00:20:00,18.1,10.6,30.07,NW,315,0.0,2.2,72,0.00,,,0.00,WUHU21623XXSP,2013-02-21 05:20:00,
2013-02-21 00:25:00,18.1,10.6,30.08,ENE,67,0.0,2.2,72,0.00,,,0.00,WUHU21623XXSP,2013-02-21 05:25:00,
2013-02-21 00:30:00,18.1,10.6,30.08,NW,315,0.0,0.0,72,0.00,,,0.00,WUHU21623XXSP,2013-02-21 05:30:00,
2013-02-21 00:37:00,18.1,10.6,30.08,NNE,22,0.0,0.0,72,0.00,,,0.00,WUHU21623XXSP,2013-02-21 05:37:00,
2013-02-21 00:42:00,18.1,10.9,30.08,NW,315,0.0,0.0,73,0.00,,,0.00,WUHU21623XXSP,2013-02-21 05:42:00,
2013-02-21 01:14:00,18.1,10.9,30.09,NNW,338,5.6,5.6,73,0.00,,,0.00,WUHU21623XXSP,2013-02-21 06:14:00,
2013-02-21 02:14:00,18.1,10.9,30.11,WNW,293,0.0,0.0,73,0.00,,,0.00,WUHU21623XXSP,2013-02-21 07:14:00,
2013-02-21 03:14:00,17.5,9.7,30.12,NNW,338,0.0,0.0,71,0.00,,,0.00,WUHU21623XXSP,2013-02-21 08:14:00,
2013-02-21 04:14:00,17.4,10.0,30.12,NNW,338,0.0,0.0,72,0.00,,,0.00,WUHU21623XXSP,2013-02-21 09:14:00,
2013-02-21 05:14:00,17.2,9.8,30.14,NNW,338,0.0,0.0,72,0.00,,,0.00,WUHU21623XXSP,2013-02-21 10:14:00,
2013-02-21 06:14:00,16.8,9.4,30.16,NNW,338,0.0,0.0,72,0.00,,,0.00,WUHU21623XXSP,2013-02-21 11:14:00,
2013-02-21 07:14:00,16.5,9.1,30.18,NE,45,0.0,0.0,72,0.00,,,0.00,WUHU21623XXSP,2013-02-21 12:14:00,
2013-02-21 08:14:00,16.5,9.4,30.22,NNE,23,0.0,0.0,73,0.00,,,0.00,WUHU21623XXSP,2013-02-21 13:14:00,
2013-02-21 09:14:00,17.0,9.6,30.20,NE,45,0.0,0.0,72,0.00,,,0.00,WUHU21623XXSP,2013-02-21 14:14:00,
2013-02-21 10:14:00,17.7,9.3,30.24,NNE,23,0.0,0.0,69,0.00,,,0.00,WUHU21623XXSP,2013-02-21 15:14:00,
2013-02-21 11:14:00,17.9,8.8,30.24,NE,45,3.8,3.8,67,0.00,,,0.00,WUHU21623XXSP,2013-02-21 16:14:00,
2013-02-21 11:48:00,18.4,8.6,30.23,NNE,22,2.7,2.7,65,0.00,,,0.00,WUHU21623XXSP,2013-02-21 16:48:00,
2013-02-21 11:53:00,18.6,8.8,30.23,North,0,0.0,2.7,65,0.00,,,0.00,WUHU21623XXSP,2013-02-21 16:53:00,
2013-02-21 11:58:00,18.6,8.8,30.23,NE,45,5.6,5.6,65,0.00,,,0.00,WUHU21623XXSP,2013-02-21 16:58:00,
2013-02-21 12:03:00,18.8,9.0,30.23,ESE,112,0.0,5.6,65,0.00,,,0.00,WUHU21623XXSP,2013-02-21 17:03:00,
2013-02-21 12:08:00,18.8,9.0,30.23,NE,45,7.4,7.4,65,0.00,,,0.00,WUHU21623XXSP,2013-02-21 17:08:00,
2013-02-21 12:13:00,19.0,9.2,30.23,NE,45,9.6,9.6,65,0.00,,,0.00,WUHU21623XXSP,2013-02-21 17:13:00,
2013-02-21 12:18:00,18.3,8.2,30.23,ENE,67,0.0,9.6,64,0.00,,,0.00,WUHU21623XXSP,2013-02-21 17:18:00,
2013-02-21 12:23:00,18.4,8.6,30.23,NNE,22,5.4,5.4,65,0.00,,,0.00,WUHU21623XXSP,2013-02-21 17:23:00,
2013-02-21 12:28:00,19.0,9.2,30.23,East,90,2.0,5.4,65,0.00,,,0.00,WUHU21623XXSP,2013-02-21 17:28:00,
2013-02-21 12:33:00,19.0,8.9,30.23,NE,45,0.0,2.0,64,0.00,,,0.00,WUHU21623XXSP,2013-02-21 17:33:00,
2013-02-21 12:38:00,19.0,8.9,30.23,NW,315,0.0,0.0,64,0.00,,,0.00,WUHU21623XXSP,2013-02-21 17:38:00,
2013-02-21 12:43:00,18.8,8.7,30.23,NNW,337,0.0,0.0,64,0.00,,,0.00,WUHU21623XXSP,2013-02-21 17:43:00,
2013-02-21 12:48:00,18.8,8.7,30.22,NW,315,6.9,6.9,64,0.00,,,0.00,WUHU21623XXSP,2013-02-21 17:48:00,
2013-02-21 12:53:00,18.6,8.5,30.22,NE,45,0.0,6.9,64,0.00,,,0.00,WUHU21623XXSP,2013-02-21 17:53:00,
2013-02-21 12:58:00,18.6,8.5,30.23,North,0,0.0,3.8,64,0.00,,,0.00,WUHU21623XXSP,2013-02-21 17:58:00,
2013-02-21 13:03:00,18.4,7.9,30.22,East,90,3.4,3.8,63,0.00,,,0.00,WUHU21623XXSP,2013-02-21 18:03:00,
2013-02-21 13:08:00,18.6,8.5,30.23,NE,45,0.0,3.4,64,0.00,,,0.00,WUHU21623XXSP,2013-02-21 18:08:00,
2013-02-21 13:13:00,19.0,8.5,30.23,NE,45,3.4,3.4,63,0.00,,,0.00,WUHU21623XXSP,2013-02-21 18:13:00,
2013-02-21 13:18:00,18.6,8.1,30.23,NNW,337,0.0,3.4,63,0.00,,,0.00,WUHU21623XXSP,2013-02-21 18:18:00,
2013-02-21 13:23:00,18.4,7.9,30.23,East,90,4.3,4.3,63,0.00,,,0.00,WUHU21623XXSP,2013-02-21 18:23:00,
2013-02-21 13:28:00,18.3,7.9,30.23,NE,45,0.0,5.8,63,0.00,,,0.00,WUHU21623XXSP,2013-02-21 18:28:00,
2013-02-21 13:33:00,18.3,7.9,30.23,North,0,0.2,5.8,63,0.00,,,0.00,WUHU21623XXSP,2013-02-21 18:33:00,
2013-02-21 13:38:00,18.1,7.7,30.22,NNW,337,0.0,0.2,63,0.00,,,0.00,WUHU21623XXSP,2013-02-21 18:38:00,
2013-02-21 13:43:00,18.1,7.7,30.23,NNE,22,2.5,2.5,63,0.00,,,0.00,WUHU21623XXSP,2013-02-21 18:43:00,
2013-02-21 13:48:00,18.1,7.7,30.23,NNE,22,0.0,2.5,63,0.00,,,0.00,WUHU21623XXSP,2013-02-21 18:48:00,
2013-02-21 13:53:00,18.1,7.7,30.23,NNE,22,0.0,0.0,63,0.00,,,0.00,WUHU21623XXSP,2013-02-21 18:53:00,
2013-02-21 13:58:00,18.1,8.0,30.23,NNE,22,0.0,2.9,64,0.00,,,0.00,WUHU21623XXSP,2013-02-21 18:58:00,
2013-02-21 14:03:00,18.1,8.0,30.23,NNE,22,0.0,2.9,64,0.00,,,0.00,WUHU21623XXSP,2013-02-21 19:03:00,
2013-02-21 14:08:00,18.4,8.3,30.23,NE,45,1.1,1.1,64,0.00,,,0.00,WUHU21623XXSP,2013-02-21 19:08:00,
2013-02-21 14:13:00,19.3,8.8,30.23,ESE,112,0.0,1.1,63,0.00,,,0.00,WUHU21623XXSP,2013-02-21 19:13:00,
2013-02-21 14:18:00,19.5,9.3,30.23,ESE,112,0.0,0.0,64,0.00,,,0.00,WUHU21623XXSP,2013-02-21 19:18:00,
2013-02-21 14:23:00,20.1,9.9,30.23,ENE,67,0.0,0.0,64,0.00,,,0.00,WUHU21623XXSP,2013-02-21 19:23:00,
2013-02-21 14:28:00,20.1,9.6,30.23,NE,45,3.8,3.8,63,0.00,,,0.00,WUHU21623XXSP,2013-02-21 19:28:00,
2013-02-21 14:33:00,20.2,9.7,30.23,ESE,112,0.0,3.8,63,0.00,,,0.00,WUHU21623XXSP,2013-02-21 19:33:00,
2013-02-21 14:38:00,20.4,10.2,30.23,ENE,67,2.0,2.0,64,0.00,,,0.00,WUHU21623XXSP,2013-02-21 19:38:00,
2013-02-21 14:43:00,20.4,9.9,30.21,NE,45,0.0,2.0,63,0.00,,,0.00,WUHU21623XXSP,2013-02-21 19:43:00,
2013-02-21 14:48:00,20.4,9.9,30.21,NE,45,3.1,3.1,63,0.00,,,0.00,WUHU21623XXSP,2013-02-21 19:48:00,
2013-02-21 14:53:00,20.2,9.7,30.21,NE,45,0.0,3.1,63,0.00,,,0.00,WUHU21623XXSP,2013-02-21 19:53:00,
2013-02-21 14:58:00,19.5,9.0,30.21,NE,45,0.0,0.0,63,0.00,,,0.00,WUHU21623XXSP,2013-02-21 19:58:00,
2013-02-21 15:03:00,19.5,9.0,30.21,ENE,67,1.6,1.6,63,0.00,,,0.00,WUHU21623XXSP,2013-02-21 20:03:00,
2013-02-21 15:09:00,19.3,9.2,30.20,ENE,67,0.0,1.6,64,0.00,,,0.00,WUHU21623XXSP,2013-02-21 20:09:00,
2013-02-21 15:14:00,19.3,9.5,30.20,NE,45,3.8,3.8,65,0.00,,,0.00,WUHU21623XXSP,2013-02-21 20:14:00,
2013-02-21 15:22:00,19.5,9.7,30.20,NE,45,0.0,3.8,65,0.00,,,0.00,WUHU21623XXSP,2013-02-21 20:22:00,
2013-02-21 15:27:00,19.5,9.7,30.20,ENE,67,0.0,0.0,65,0.00,,,0.00,WUHU21623XXSP,2013-02-21 20:27:00,
2013-02-21 15:32:00,19.9,10.1,30.20,NE,45,0.0,0.0,65,0.00,,,0.00,WUHU21623XXSP,2013-02-21 20:32:00,
2013-02-21 15:37:00,19.9,10.1,30.19,NE,45,4.0,4.0,65,0.00,,,0.00,WUHU21623XXSP,2013-02-21 20:37:00,
2013-02-21 15:43:00,19.5,9.7,30.19,ENE,67,1.6,4.0,65,0.00,,,0.00,WUHU21623XXSP,2013-02-21 20:43:00,
2013-02-21 15:50:00,19.3,9.5,30.19,NE,45,0.0,1.6,65,0.00,,,0.00,WUHU21623XXSP,2013-02-21 20:50:00,
2013-02-21 15:55:00,19.2,9.4,30.18,WNW,292,0.0,0.0,65,0.00,,,0.00,WUHU21623XXSP,2013-02-21 20:55:00,
2013-02-21 16:00:00,19.0,9.6,30.18,NE,45,0.0,0.0,66,0.00,,,0.00,WUHU21623XXSP,2013-02-21 21:00:00,
2013-02-21 16:05:00,18.8,9.4,30.17,NE,45,2.2,3.1,66,0.00,,,0.00,WUHU21623XXSP,2013-02-21 21:05:00,
2013-02-21 16:10:00,18.8,9.7,30.18,NNE,22,0.0,3.1,67,0.00,,,0.00,WUHU21623XXSP,2013-02-21 21:10:00,
2013-02-21 16:15:00,19.0,9.9,30.17,NNE,22,6.3,6.3,67,0.00,,,0.00,WUHU21623XXSP,2013-02-21 21:15:00,
2013-02-21 16:20:00,19.3,10.2,30.18,NNE,22,0.0,6.3,67,0.00,,,0.00,WUHU21623XXSP,2013-02-21 21:20:00,
2013-02-21 16:25:00,19.3,10.2,30.18,NNE,22,7.2,7.2,67,0.00,,,0.00,WUHU21623XXSP,2013-02-21 21:25:00,
2013-02-21 16:30:00,19.0,9.9,30.18,NE,45,2.0,7.2,67,0.00,,,0.00,WUHU21623XXSP,2013-02-21 21:30:00,
2013-02-21 16:35:00,19.0,9.9,30.18,NE,45,0.0,2.0,67,0.00,,,0.00,WUHU21623XXSP,2013-02-21 21:35:00,
2013-02-21 16:40:00,19.0,9.9,30.18,NE,45,0.0,0.0,67,0.00,,,0.00,WUHU21623XXSP,2013-02-21 21:40:00,
2013-02-21 16:45:00,18.8,9.7,30.19,ENE,67,1.6,3.8,67,0.00,,,0.00,WUHU21623XXSP,2013-02-21 21:45:00,
2013-02-21 16:50:00,18.6,9.5,30.18,NNE,22,0.0,3.8,67,0.00,,,0.00,WUHU21623XXSP,2013-02-21 21:50:00,
2013-02-21 16:56:00,18.4,9.7,30.19,NE,45,8.7,8.7,68,0.00,,,0.00,WUHU21623XXSP,2013-02-21 21:56:00,
2013-02-21 17:01:00,18.1,9.4,30.19,NNE,22,7.2,8.7,68,0.00,,,0.00,WUHU21623XXSP,2013-02-21 22:01:00,
2013-02-21 17:06:00,17.9,9.2,30.20,NE,45,0.0,7.2,68,0.00,,,0.00,WUHU21623XXSP,2013-02-21 22:06:00,
2013-02-21 17:11:00,17.7,9.3,30.21,East,90,7.2,7.2,69,0.00,,,0.00,WUHU21623XXSP,2013-02-21 22:11:00,
2013-02-21 17:16:00,17.7,9.3,30.22,ENE,67,1.8,7.2,69,0.00,,,0.00,WUHU21623XXSP,2013-02-21 22:16:00,
2013-02-21 17:21:00,17.7,9.3,30.23,NE,45,0.0,1.8,69,0.00,,,0.00,WUHU21623XXSP,2013-02-21 22:21:00,
2013-02-21 17:26:00,17.7,9.3,30.23,ENE,67,0.0,0.0,69,0.00,,,0.00,WUHU21623XXSP,2013-02-21 22:26:00,
2013-02-21 17:31:00,17.7,9.3,30.22,NE,45,0.0,0.0,69,0.00,,,0.00,WUHU21623XXSP,2013-02-21 22:31:00,
2013-02-21 17:36:00,17.7,9.3,30.23,ESE,112,0.0,0.0,69,0.00,,,0.00,WUHU21623XXSP,2013-02-21 22:36:00,
2013-02-21 17:41:00,17.5,9.1,30.23,ENE,67,2.0,2.0,69,0.00,,,0.00,WUHU21623XXSP,2013-02-21 22:41:00,
2013-02-21 17:46:00,17.5,9.4,30.23,East,90,0.0,2.0,70,0.00,,,0.00,WUHU21623XXSP,2013-02-21 22:46:00,
2013-02-21 17:52:00,17.2,9.1,30.22,NE,45,1.6,1.6,70,0.00,,,0.00,WUHU21623XXSP,2013-02-21 22:52:00,
2013-02-21 17:57:00,17.0,8.9,30.23,NE,45,2.7,2.7,70,0.00,,,0.00,WUHU21623XXSP,2013-02-21 22:57:00,
2013-02-21 18:02:00,17.0,8.9,30.23,ENE,67,0.0,2.7,70,0.00,,,0.00,WUHU21623XXSP,2013-02-21 23:02:00,
2013-02-21 18:13:00,16.8,9.1,30.22,NE,45,0.0,0.0,71,0.00,,,0.00,WUHU21623XXSP,2013-02-21 23:13:00,
2013-02-21 18:18:00,16.8,9.1,30.22,ESE,112,0.0,0.0,71,0.00,,,0.00,WUHU21623XXSP,2013-02-21 23:18:00,
2013-02-21 18:34:00,16.6,9.2,30.22,ENE,67,0.0,0.0,72,0.00,,,0.00,WUHU21623XXSP,2013-02-21 23:34:00,
2013-02-21 18:39:00,16.6,9.2,30.22,ENE,67,0.0,0.0,72,0.00,,,0.00,WUHU21623XXSP,2013-02-21 23:39:00,
2013-02-21 18:44:00,16.6,9.2,30.21,ENE,67,3.8,3.8,72,0.00,,,0.00,WUHU21623XXSP,2013-02-21 23:44:00,
2013-02-21 18:49:00,16.5,9.4,30.21,East,90,0.0,7.8,73,0.00,,,0.00,WUHU21623XXSP,2013-02-21 23:49:00,
2013-02-21 18:54:00,16.5,9.4,30.22,NE,45,3.4,7.8,73,0.00,,,0.00,WUHU21623XXSP,2013-02-21 23:54:00,
2013-02-21 18:59:00,16.5,9.4,30.22,East,90,2.0,3.4,73,0.00,,,0.00,WUHU21623XXSP,2013-02-21 23:59:00,
2013-02-21 19:04:00,16.5,9.7,30.21,NE,45,0.0,2.0,74,0.00,,,0.00,WUHU21623XXSP,2013-02-22 00:04:00,
2013-02-21 19:13:00,16.6,9.8,30.21,ENE,67,0.0,0.0,74,0.00,,,0.00,WUHU21623XXSP,2013-02-22 00:13:00,
2013-02-21 19:18:00,16.8,10.3,30.21,NE,45,3.8,3.8,75,0.00,,,0.00,WUHU21623XXSP,2013-02-22 00:18:00,
2013-02-21 19:23:00,16.8,10.3,30.20,NE,45,1.6,3.8,75,0.00,,,0.00,WUHU21623XXSP,2013-02-22 00:23:00,
2013-02-21 19:28:00,16.8,10.3,30.20,NE,45,1.6,1.6,75,0.00,,,0.00,WUHU21623XXSP,2013-02-22 00:28:00,
2013-02-21 19:33:00,16.8,10.3,30.20,East,90,4.7,4.7,75,0.00,,,0.00,WUHU21623XXSP,2013-02-22 00:33:00,
2013-02-21 19:38:00,16.8,10.3,30.20,ENE,67,1.8,4.7,75,0.00,,,0.00,WUHU21623XXSP,2013-02-22 00:38:00,
2013-02-21 19:43:00,17.2,11.0,30.20,NE,45,0.0,8.5,76,0.00,,,0.00,WUHU21623XXSP,2013-02-22 00:43:00,
2013-02-21 19:48:00,17.4,11.2,30.20,East,90,0.0,8.5,76,0.00,,,0.00,WUHU21623XXSP,2013-02-22 00:48:00,
2013-02-21 19:53:00,17.7,11.4,30.20,ENE,67,0.0,0.0,76,0.00,,,0.00,WUHU21623XXSP,2013-02-22 00:53:00,
2013-02-21 19:58:00,17.7,11.4,30.20,ESE,112,0.0,0.0,76,0.00,,,0.00,WUHU21623XXSP,2013-02-22 00:58:00,
2013-02-21 20:03:00,18.1,11.8,30.20,NNE,22,4.7,4.7,76,0.00,,,0.00,WUHU21623XXSP,2013-02-22 01:03:00,
2013-02-21 20:08:00,18.1,11.8,30.20,ENE,67,2.7,4.7,76,0.00,,,0.00,WUHU21623XXSP,2013-02-22 01:08:00,
2013-02-21 20:13:00,18.1,11.8,30.20,ESE,112,10.5,10.5,76,0.00,,,0.00,WUHU21623XXSP,2013-02-22 01:13:00,
2013-02-21 20:18:00,18.3,12.0,30.20,ENE,67,5.6,10.5,76,0.00,,,0.00,WUHU21623XXSP,2013-02-22 01:18:00,
2013-02-21 20:23:00,18.3,12.0,30.20,East,90,0.0,5.6,76,0.00,,,0.00,WUHU21623XXSP,2013-02-22 01:23:00,
2013-02-21 20:28:00,18.4,12.1,30.20,East,90,0.0,7.2,76,0.00,,,0.00,WUHU21623XXSP,2013-02-22 01:28:00,
2013-02-21 20:33:00,18.4,12.1,30.19,East,90,4.3,7.2,76,0.00,,,0.00,WUHU21623XXSP,2013-02-22 01:33:00,
2013-02-21 20:38:00,18.4,12.1,30.19,SE,135,1.3,4.3,76,0.00,,,0.00,WUHU21623XXSP,2013-02-22 01:38:00,
2013-02-21 20:43:00,18.4,12.1,30.19,NE,45,4.9,8.3,76,0.00,,,0.00,WUHU21623XXSP,2013-02-22 01:43:00,
2013-02-21 20:48:00,18.4,12.1,30.18,ENE,67,4.3,8.3,76,0.00,,,0.00,WUHU21623XXSP,2013-02-22 01:48:00,
2013-02-21 20:53:00,18.4,12.1,30.18,NE,45,4.7,4.7,76,0.00,,,0.00,WUHU21623XXSP,2013-02-22 01:53:00,
2013-02-21 20:58:00,18.4,12.1,30.19,ESE,112,8.3,8.3,76,0.00,,,0.00,WUHU21623XXSP,2013-02-22 01:58:00,
2013-02-21 21:03:00,18.6,12.3,30.18,NE,45,12.3,12.3,76,0.00,,,0.00,WUHU21623XXSP,2013-02-22 02:03:00,
2013-02-21 21:08:00,18.6,12.3,30.18,East,90,6.7,12.3,76,0.00,,,0.00,WUHU21623XXSP,2013-02-22 02:08:00,
2013-02-21 21:13:00,18.6,12.3,30.18,ESE,112,2.5,6.7,76,0.00,,,0.00,WUHU21623XXSP,2013-02-22 02:13:00,
2013-02-21 21:18:00,18.8,12.8,30.18,ENE,67,12.3,12.3,77,0.00,,,0.00,WUHU21623XXSP,2013-02-22 02:18:00,
2013-02-21 21:26:00,18.8,12.8,30.17,NE,45,8.1,8.1,77,0.00,,,0.00,WUHU21623XXSP,2013-02-22 02:26:00,
2013-02-21 21:31:00,18.8,12.8,30.17,East,90,2.2,8.1,77,0.00,,,0.00,WUHU21623XXSP,2013-02-22 02:31:00,
2013-02-21 21:36:00,18.8,12.8,30.17,ENE,67,4.9,4.9,77,0.00,,,0.00,WUHU21623XXSP,2013-02-22 02:36:00,
2013-02-21 21:43:00,19.0,13.3,30.16,ENE,67,9.6,10.7,78,0.00,,,0.00,WUHU21623XXSP,2013-02-22 02:43:00,
2013-02-21 21:48:00,19.0,13.3,30.16,East,90,9.2,9.6,78,0.00,,,0.00,WUHU21623XXSP,2013-02-22 02:48:00,
2013-02-21 21:53:00,19.0,13.3,30.16,East,90,2.5,9.2,78,0.00,,,0.00,WUHU21623XXSP,2013-02-22 02:53:00,
2013-02-21 22:02:00,19.3,13.9,30.17,ESE,112,3.1,4.0,79,0.00,,,0.00,WUHU21623XXSP,2013-02-22 03:02:00,
2013-02-21 22:07:00,19.3,13.9,30.17,NE,45,6.5,6.5,79,0.00,,,0.00,WUHU21623XXSP,2013-02-22 03:07:00,
2013-02-21 22:12:00,19.3,13.9,30.17,NE,45,13.0,13.0,79,0.00,,,0.00,WUHU21623XXSP,2013-02-22 03:12:00,
2013-02-21 22:17:00,19.3,14.1,30.16,ENE,67,5.1,13.0,80,0.00,,,0.00,WUHU21623XXSP,2013-02-22 03:17:00,
2013-02-21 22:26:00,19.5,14.3,30.16,East,90,3.6,3.6,80,0.00,,,0.00,WUHU21623XXSP,2013-02-22 03:26:00,
2013-02-21 22:31:00,19.5,14.3,30.16,ENE,67,3.6,3.6,80,0.00,,,0.00,WUHU21623XXSP,2013-02-22 03:31:00,
2013-02-21 22:36:00,19.5,14.3,30.16,SSE,157,2.2,3.6,80,0.00,,,0.00,WUHU21623XXSP,2013-02-22 03:36:00,
2013-02-21 22:43:00,19.5,14.6,30.15,NE,45,5.8,5.8,81,0.00,,,0.00,WUHU21623XXSP,2013-02-22 03:43:00,
2013-02-21 22:48:00,19.5,14.6,30.15,NE,45,6.5,6.5,81,0.00,,,0.00,WUHU21623XXSP,2013-02-22 03:48:00,
2013-02-21 22:53:00,19.5,14.6,30.15,NE,45,3.4,6.5,81,0.00,,,0.00,WUHU21623XXSP,2013-02-22 03:53:00,
2013-02-21 22:58:00,19.9,15.0,30.15,SE,135,5.1,5.1,81,0.00,,,0.00,WUHU21623XXSP,2013-02-22 03:58:00,
2013-02-21 23:03:00,19.9,15.0,30.15,ESE,112,6.0,6.0,81,0.00,,,0.00,WUHU21623XXSP,2013-02-22 04:03:00,
2013-02-21 23:08:00,19.9,15.3,30.15,ENE,67,3.6,6.0,82,0.00,,,0.00,WUHU21623XXSP,2013-02-22 04:08:00,
2013-02-21 23:13:00,20.1,15.5,30.14,ENE,67,4.5,4.5,82,0.00,,,0.00,WUHU21623XXSP,2013-02-22 04:13:00,
2013-02-21 23:21:00,20.1,15.5,30.14,NE,45,4.0,4.5,82,0.00,,,0.00,WUHU21623XXSP,2013-02-22 04:21:00,
2013-02-21 23:30:00,20.1,15.5,30.14,ENE,67,6.3,6.3,82,0.00,,,0.00,WUHU21623XXSP,2013-02-22 04:30:00,